Weather History for Olympia, WA

Change the Weather History Date:

Monday, February 3, 2014

  Actual Average Record
Temperature  
Mean Temperature 35 °F 40 °F  
Max Temperature 41 °F 48 °F 60 °F (1954)
Min Temperature 28 °F 33 °F 1 °F (1950)
Degree Days  
Heating Degree Days 30 24  
Month to date heating degree days 80 73  
Since 1 July heating degree days 3125 3124  
Cooling Degree Days 0 0  
Month to date cooling degree days 0 0  
Year to date cooling degree days 0 0  
Moisture  
Dew Point 22 °F    
Average Humidity 64    
Maximum Humidity 89    
Minimum Humidity 38    
Precipitation  
Precipitation 0.00 in 0.21 in 1.50 in (1968)
Month to date precipitation 0.08 0.60  
Year to date precipitation 4.77 8.44  
Sea Level Pressure  
Sea Level Pressure 30.12 in    
Wind  
Wind Speed 5 mph (ENE)    
Max Wind Speed 15 mph    
Max Gust Speed 20 mph    
Visibility 10 miles    
Events      
T = Trace of Precipitation, MM = Missing Value Source: NWS Daily Summary

Daily Weather History Graph

Daily Weather History Graph

Search for Another Location

Airport:

Trip Planner

Search our weather history database for the weather conditions in past years. The results will help you decide how hot, cold, wet, or windy it might be!

Date:

Astronomy

Feb. 03, 2014 Rise Set
Actual Time 7:33 AM PST 5:17 PM PST
Civil Twilight 7:01 AM PST 5:50 PM PST
Nautical Twilight 6:25 AM PST 6:26 PM PST
Astronomical Twilight 5:49 AM PST 7:02 PM PST
Moon 9:19 AM PST (2/3) 10:36 PM PST (2/3)
Length of Visible Light 10h 48m
Length of Day
9h 44m
Waxing Crescent, 20% of the Moon is Illuminated
Feb 3
Waxing Crescent
Feb 6
First Quarter
Feb 14
Full
Feb 22
Last Quarter
Mar 1
New

Hourly Weather History & Observations

Time (PST) Temp. Windchill Dew Point Humidity Pressure Visibility Wind Dir Wind Speed Gust Speed Precip Events Conditions
12:54 AM 36.0 °F - 30.9 °F 82% 30.03 in 10.0 mi Calm Calm - N/A   Overcast
1:54 AM 35.1 °F - 32.0 °F 89% 30.03 in 10.0 mi Calm Calm - N/A   Overcast
2:54 AM 36.0 °F 33.3 °F 30.9 °F 82% 30.04 in 10.0 mi NE 3.5 mph - N/A   Overcast
3:54 AM 35.1 °F - 28.9 °F 78% 30.04 in 10.0 mi Calm Calm - N/A   Overcast
4:54 AM 35.1 °F 32.2 °F 28.0 °F 76% 30.05 in 10.0 mi East 3.5 mph - N/A   Overcast
5:54 AM 35.1 °F 32.2 °F 25.0 °F 67% 30.06 in 10.0 mi East 3.5 mph - N/A   Overcast
6:54 AM 35.1 °F 32.2 °F 24.1 °F 64% 30.08 in 10.0 mi ENE 3.5 mph - N/A   Overcast
7:54 AM 35.1 °F 31.0 °F 21.9 °F 59% 30.10 in 10.0 mi ENE 4.6 mph - N/A   Overcast
8:45 AM 35.6 °F - 21.2 °F 56% - - North - - N/A   Overcast
8:54 AM 35.1 °F 29.3 °F 21.9 °F 59% 30.12 in 10.0 mi East 6.9 mph - N/A   Overcast
9:54 AM 36.0 °F 31.1 °F 24.1 °F 62% 30.13 in 10.0 mi East 5.8 mph - N/A   Overcast
10:54 AM 37.0 °F 31.6 °F 23.0 °F 57% 30.14 in 10.0 mi East 6.9 mph - N/A   Mostly Cloudy
11:54 AM 37.9 °F 33.5 °F 23.0 °F 55% 30.14 in 10.0 mi Variable 5.8 mph - N/A   Mostly Cloudy
12:54 PM 39.0 °F 32.8 °F 21.9 °F 50% 30.12 in 10.0 mi East 9.2 mph - N/A   Mostly Cloudy
1:54 PM 37.9 °F 30.9 °F 21.0 °F 51% 30.12 in 10.0 mi East 10.4 mph - N/A   Overcast
2:54 PM 37.9 °F 32.1 °F 18.0 °F 45% 30.12 in 10.0 mi East 8.1 mph - N/A   Overcast
3:54 PM 37.9 °F 30.9 °F 17.1 °F 43% 30.14 in 10.0 mi ENE 10.4 mph - N/A   Mostly Cloudy
4:54 PM 37.0 °F 31.0 °F 15.1 °F 41% 30.15 in 10.0 mi East 8.1 mph - N/A   Mostly Cloudy
5:54 PM 36.0 °F 28.5 °F 12.9 °F 39% 30.16 in 10.0 mi ENE 10.4 mph - N/A   Mostly Cloudy
6:54 PM 34.0 °F 29.8 °F 12.9 °F 42% 30.17 in 10.0 mi ENE 4.6 mph - N/A   Mostly Cloudy
7:54 PM 33.1 °F 30.0 °F 14.0 °F 46% 30.17 in 10.0 mi East 3.5 mph - N/A   Overcast
8:54 PM 30.0 °F 24.1 °F 17.1 °F 59% 30.18 in 10.0 mi East 5.8 mph - N/A   Mostly Cloudy
9:54 PM 32.0 °F - 16.0 °F 52% 30.19 in 10.0 mi Calm Calm - N/A   Overcast
10:54 PM 32.0 °F - 16.0 °F 52% 30.19 in 10.0 mi Calm Calm - N/A   Overcast
11:54 PM 28.0 °F - 21.0 °F 75% 30.21 in 10.0 mi Calm Calm - N/A   Overcast